Location: Newark
(52.3500°N, 175.9667°E)
Time: 23:59:37
(UTC+00:00)

N. Korean satellite - Pass Details

Date: 23 November 2019
Orbit: 456 x 506 km, 97.2° (Epoch: 06 December)

Event Time Altitude Azimuth Distance (km) Brightness Sun altitude
Rises 16:58:25 0° 30° (NNE) 2,614 10.7 -25.7°
Reaches altitude 10° 17:01:40 10° 61° (ENE) 1,714 10.1 -25.2°
Maximum altitude 17:03:15 12° 87° (E) 1,563 10.1 -25.0°
Drops below altitude 10° 17:04:49 10° 113° (ESE) 1,697 10.2 -24.7°
Sets 17:07:59 0° 144° (SE) 2,559 10.8 -24.3°
